Weather in Vetka

Belarus     52°33′32″N   31°10′19″E
temp.,
°C
wind,
m/s
gust,
m/s
humid.,
%
clouds,
%
prec.,
mm/h
press.,
hPa
HPBL,
m
16 june, wed
wed1600:00+16n34910 0.0 101370
03:00+14n34930 0.0 101368
06:00+14n378911 0.0 1014161
09:00+19n467771 0.0 1015498
12:00+22nne456861 0.3 10151230
15:00+23n456217 1.6 10151368
18:00+22n35715 1.4 1015766
21:00+18nne35865 1.8 101771
17 june, thu
thu1700:00+15nne48893 0.0 1018126
03:00+14ne38912 0.0 1019145
06:00+14ne37884 0.0 1021148
09:00+19ne58700 0.0 1022414
12:00+22ene57610 0.0 10231241
15:00+24ne56563 0.0 10221624
18:00+23ne46630 0.0 10221059
21:00+18ne33810 0.0 102340
18 june, fri
fri1800:00+15e34864 0.0 102559
03:00+13ene369122 0.0 102590
06:00+14ene399211 0.0 1026206
09:00+19e57703 0.0 1025569
12:00+23e57545 0.0 10251247
15:00+24e56524 0.0 10241440
18:00+23e47640 0.0 1024889
21:00+18e34851 0.0 102461
19 june, sat
sat1900:00+15ese36935 0.0 1025106
03:00+14e35940 0.0 102589
06:00+15e37945 0.0 1026158
09:00+20ese467325 0.0 1025539
12:00+24ese556213 0.0 10241333
15:00+25se556392 0.1 10231343
18:00+23ese467138 0.0 1022641
21:00+19ese35845 0.1 102385
20 june, sun
sun2000:00+17ese37930 0.0 1023122
03:00+16ese35950 0.0 102392
06:00+16e35940 0.0 1023142
09:00+21ese457310 0.0 1022544
12:00+25ese45599 0.0 10211095
15:00+26ese455598 0.0 10201374
18:00+25ese456522 0.0 10191064
21:00+20ese35845 0.0 101970